Time,TemperatureF,DewpointF,PressureIn,WindDirection,WindDirectionDegrees,WindSpeedMPH,WindSpeedGustMPH,Humidity,HourlyPrecipIn,Conditions,Clouds,dailyrainin,SoftwareType,DateUTC
2013-09-25 00:00:00,51.7,46.4,30.26,West,270,0.4,0.4,82,0.00,,,0.00,WUHU216HW,2013-09-25 05:00:00,
2013-09-25 00:05:00,51.7,46.4,30.26,West,270,0.4,0.4,82,0.00,,,0.00,WUHU216HW,2013-09-25 05:05:00,
2013-09-25 00:30:00,51.5,46.2,30.26,West,270,0.4,0.4,82,0.00,,,0.00,WUHU216HW,2013-09-25 05:30:00,
2013-09-25 00:35:00,51.5,46.2,30.26,West,270,0.4,0.4,82,0.00,,,0.00,WUHU216HW,2013-09-25 05:35:00,
2013-09-25 01:00:00,50.9,45.6,30.26,West,270,0.0,0.0,82,0.00,,,0.00,WUHU216HW,2013-09-25 06:00:00,
2013-09-25 01:05:00,50.9,45.6,30.26,West,270,0.0,0.0,82,0.00,,,0.00,WUHU216HW,2013-09-25 06:05:00,
2013-09-25 01:30:00,50.4,45.4,30.26,West,270,0.0,0.0,83,0.00,,,0.00,WUHU216HW,2013-09-25 06:30:00,
2013-09-25 01:35:00,50.4,45.4,30.26,West,270,0.0,0.0,83,0.00,,,0.00,WUHU216HW,2013-09-25 06:35:00,
2013-09-25 02:00:00,50.0,45.0,30.26,West,270,0.0,0.0,83,0.00,,,0.00,WUHU216HW,2013-09-25 07:00:00,
2013-09-25 02:05:00,50.0,45.0,30.26,West,270,0.0,0.0,83,0.00,,,0.00,WUHU216HW,2013-09-25 07:05:00,
2013-09-25 02:30:00,49.7,44.6,30.26,West,270,0.0,0.0,83,0.00,,,0.00,WUHU216HW,2013-09-25 07:30:00,
2013-09-25 02:35:00,49.7,44.6,30.26,West,270,0.0,0.0,83,0.00,,,0.00,WUHU216HW,2013-09-25 07:35:00,
2013-09-25 03:00:00,49.1,44.1,30.27,West,270,0.0,0.0,83,0.00,,,0.00,WUHU216HW,2013-09-25 08:00:00,
2013-09-25 03:05:00,49.1,44.1,30.27,West,270,0.0,0.0,83,0.00,,,0.00,WUHU216HW,2013-09-25 08:05:00,
2013-09-25 03:30:00,48.1,42.8,30.27,West,270,0.0,0.0,82,0.00,,,0.00,WUHU216HW,2013-09-25 08:30:00,
2013-09-25 03:35:00,48.1,42.8,30.27,West,270,0.0,0.0,82,0.00,,,0.00,WUHU216HW,2013-09-25 08:35:00,
2013-09-25 04:00:00,47.3,42.5,30.27,West,270,0.0,0.0,83,0.00,,,0.00,WUHU216HW,2013-09-25 09:00:00,
2013-09-25 04:05:00,47.3,42.5,30.27,West,270,0.0,0.0,83,0.00,,,0.00,WUHU216HW,2013-09-25 09:05:00,
2013-09-25 04:30:00,47.0,42.1,30.27,West,270,0.4,0.4,83,0.00,,,0.00,WUHU216HW,2013-09-25 09:30:00,
2013-09-25 04:35:00,47.0,42.1,30.27,West,270,0.4,0.4,83,0.00,,,0.00,WUHU216HW,2013-09-25 09:35:00,
2013-09-25 05:00:00,46.6,42.0,30.27,West,270,0.4,0.4,84,0.00,,,0.00,WUHU216HW,2013-09-25 10:00:00,
2013-09-25 05:05:00,46.6,42.0,30.27,West,270,0.4,0.4,84,0.00,,,0.00,WUHU216HW,2013-09-25 10:05:00,
2013-09-25 05:30:00,46.3,41.8,30.27,West,270,0.2,0.2,84,0.00,,,0.00,WUHU216HW,2013-09-25 10:30:00,
2013-09-25 05:35:00,46.3,41.8,30.27,West,270,0.2,0.2,84,0.00,,,0.00,WUHU216HW,2013-09-25 10:35:00,
2013-09-25 06:00:00,46.3,42.0,30.27,West,270,0.0,0.0,85,0.00,,,0.00,WUHU216HW,2013-09-25 11:00:00,
2013-09-25 06:05:00,46.3,42.0,30.27,West,270,0.0,0.0,85,0.00,,,0.00,WUHU216HW,2013-09-25 11:05:00,
2013-09-25 06:30:00,46.4,42.2,30.28,WSW,248,0.4,0.4,85,0.00,,,0.00,WUHU216HW,2013-09-25 11:30:00,
2013-09-25 06:35:00,46.4,42.2,30.28,WSW,248,0.4,0.4,85,0.00,,,0.00,WUHU216HW,2013-09-25 11:35:00,
2013-09-25 07:00:00,46.1,41.9,30.29,WNW,293,0.4,0.4,85,0.00,,,0.00,WUHU216HW,2013-09-25 12:00:00,
2013-09-25 07:05:00,46.1,41.9,30.29,WNW,293,0.4,0.4,85,0.00,,,0.00,WUHU216HW,2013-09-25 12:05:00,
2013-09-25 07:30:00,46.1,42.1,30.28,WNW,293,0.4,0.4,86,0.00,,,0.00,WUHU216HW,2013-09-25 12:30:00,
2013-09-25 07:35:00,46.1,42.1,30.28,WNW,293,0.4,0.4,86,0.00,,,0.00,WUHU216HW,2013-09-25 12:35:00,
2013-09-25 08:00:00,46.8,43.2,30.28,WNW,293,0.0,0.0,87,0.00,,,0.00,WUHU216HW,2013-09-25 13:00:00,
2013-09-25 08:05:00,46.8,43.2,30.28,WNW,293,0.0,0.0,87,0.00,,,0.00,WUHU216HW,2013-09-25 13:05:00,
2013-09-25 08:10:00,46.8,43.2,30.28,WNW,293,0.0,0.0,87,0.00,,,0.00,WUHU216HW,2013-09-25 13:10:00,
2013-09-25 08:30:00,48.4,45.1,30.28,SE,135,1.8,1.8,88,0.00,,,0.00,WUHU216HW,2013-09-25 13:30:00,
2013-09-25 08:35:00,48.4,45.1,30.28,SE,135,1.8,1.8,88,0.00,,,0.00,WUHU216HW,2013-09-25 13:35:00,
2013-09-25 09:00:00,49.9,46.4,30.28,SSE,158,0.7,0.7,88,0.00,,,0.00,WUHU216HW,2013-09-25 14:00:00,
2013-09-25 09:05:00,49.9,46.4,30.28,SSE,158,0.7,0.7,88,0.00,,,0.00,WUHU216HW,2013-09-25 14:05:00,
2013-09-25 09:10:00,49.9,46.4,30.28,SSE,158,0.7,0.7,88,0.00,,,0.00,WUHU216HW,2013-09-25 14:10:00,
2013-09-25 09:30:00,51.8,48.7,30.29,ESE,113,0.9,0.9,89,0.00,,,0.00,WUHU216HW,2013-09-25 14:30:00,
2013-09-25 09:35:00,51.8,48.7,30.29,ESE,113,0.9,0.9,89,0.00,,,0.00,WUHU216HW,2013-09-25 14:35:00,
2013-09-25 10:00:00,54.5,51.0,30.29,SE,135,0.4,0.4,88,0.00,,,0.00,WUHU216HW,2013-09-25 15:00:00,
2013-09-25 10:05:00,54.5,51.0,30.29,SE,135,0.4,0.4,88,0.00,,,0.00,WUHU216HW,2013-09-25 15:05:00,
2013-09-25 10:10:00,54.5,51.0,30.29,SE,135,0.4,0.4,88,0.00,,,0.00,WUHU216HW,2013-09-25 15:10:00,
2013-09-25 10:30:00,58.3,53.5,30.28,SSE,158,0.9,0.9,84,0.00,,,0.00,WUHU216HW,2013-09-25 15:30:00,
2013-09-25 10:35:00,58.3,53.5,30.28,SSE,158,0.9,0.9,84,0.00,,,0.00,WUHU216HW,2013-09-25 15:35:00,
2013-09-25 11:00:00,61.6,54.6,30.28,SE,135,0.4,0.4,78,0.00,,,0.00,WUHU216HW,2013-09-25 16:00:00,
2013-09-25 11:05:00,61.6,54.6,30.28,SE,135,0.4,0.4,78,0.00,,,0.00,WUHU216HW,2013-09-25 16:05:00,
2013-09-25 11:30:00,64.3,55.8,30.28,ESE,113,0.9,0.9,74,0.00,,,0.00,WUHU216HW,2013-09-25 16:30:00,
2013-09-25 11:35:00,64.3,55.8,30.28,ESE,113,0.9,0.9,74,0.00,,,0.00,WUHU216HW,2013-09-25 16:35:00,
2013-09-25 12:00:00,66.2,56.5,30.28,SE,135,1.3,1.3,71,0.00,,,0.00,WUHU216HW,2013-09-25 17:00:00,
2013-09-25 12:05:00,66.2,56.5,30.28,SE,135,1.3,1.3,71,0.00,,,0.00,WUHU216HW,2013-09-25 17:05:00,
2013-09-25 12:30:00,67.1,54.1,30.27,SE,135,4.7,4.7,63,0.00,,,0.00,WUHU216HW,2013-09-25 17:30:00,
2013-09-25 12:35:00,67.1,54.1,30.27,SE,135,4.7,4.7,63,0.00,,,0.00,WUHU216HW,2013-09-25 17:35:00,
2013-09-25 13:00:00,67.7,54.2,30.27,ESE,113,1.6,1.6,62,0.00,,,0.00,WUHU216HW,2013-09-25 18:00:00,
2013-09-25 13:05:00,67.7,54.2,30.27,ESE,113,1.6,1.6,62,0.00,,,0.00,WUHU216HW,2013-09-25 18:05:00,
2013-09-25 13:10:00,67.7,54.2,30.27,ESE,113,1.6,1.6,62,0.00,,,0.00,WUHU216HW,2013-09-25 18:10:00,
2013-09-25 13:30:00,68.0,52.7,30.25,ESE,113,2.5,2.5,58,0.00,,,0.00,WUHU216HW,2013-09-25 18:30:00,
2013-09-25 13:35:00,68.0,52.7,30.25,ESE,113,2.5,2.5,58,0.00,,,0.00,WUHU216HW,2013-09-25 18:35:00,
2013-09-25 14:00:00,68.9,53.6,30.25,East,90,0.7,0.7,58,0.00,,,0.00,WUHU216HW,2013-09-25 19:00:00,
2013-09-25 14:05:00,68.9,53.6,30.25,East,90,0.7,0.7,58,0.00,,,0.00,WUHU216HW,2013-09-25 19:05:00,
2013-09-25 14:30:00,71.3,54.7,30.24,East,90,1.6,1.6,56,0.00,,,0.00,WUHU216HW,2013-09-25 19:30:00,
2013-09-25 14:35:00,71.3,54.7,30.24,East,90,1.6,1.6,56,0.00,,,0.00,WUHU216HW,2013-09-25 19:35:00,
2013-09-25 15:00:00,71.1,52.0,30.24,SE,135,3.8,3.8,51,0.00,,,0.00,WUHU216HW,2013-09-25 20:00:00,
2013-09-25 15:05:00,71.1,52.0,30.24,SE,135,3.8,3.8,51,0.00,,,0.00,WUHU216HW,2013-09-25 20:05:00,
2013-09-25 15:30:00,71.5,52.8,30.23,SSE,158,2.5,2.5,52,0.00,,,0.00,WUHU216HW,2013-09-25 20:30:00,
2013-09-25 15:35:00,71.5,52.8,30.23,SSE,158,2.5,2.5,52,0.00,,,0.00,WUHU216HW,2013-09-25 20:35:00,
2013-09-25 16:00:00,70.2,53.3,30.23,SSE,158,1.8,1.8,55,0.00,,,0.00,WUHU216HW,2013-09-25 21:00:00,
2013-09-25 16:05:00,70.2,53.3,30.23,SSE,158,1.8,1.8,55,0.00,,,0.00,WUHU216HW,2013-09-25 21:05:00,
2013-09-25 16:30:00,69.5,51.6,30.23,SE,135,3.4,3.4,53,0.00,,,0.00,WUHU216HW,2013-09-25 21:30:00,
2013-09-25 16:35:00,69.5,51.6,30.23,SE,135,3.4,3.4,53,0.00,,,0.00,WUHU216HW,2013-09-25 21:35:00,
2013-09-25 17:00:00,68.6,52.2,30.23,ESE,113,1.1,1.1,56,0.00,,,0.00,WUHU216HW,2013-09-25 22:00:00,
2013-09-25 17:05:00,68.6,52.2,30.23,ESE,113,1.1,1.1,56,0.00,,,0.00,WUHU216HW,2013-09-25 22:05:00,
2013-09-25 17:30:00,67.5,53.2,30.23,SE,135,3.6,3.6,60,0.00,,,0.00,WUHU216HW,2013-09-25 22:30:00,
2013-09-25 17:35:00,67.5,53.2,30.23,SE,135,3.6,3.6,60,0.00,,,0.00,WUHU216HW,2013-09-25 22:35:00,
2013-09-25 18:00:00,67.1,53.3,30.23,ESE,113,3.1,3.1,61,0.00,,,0.00,WUHU216HW,2013-09-25 23:00:00,
2013-09-25 18:05:00,67.1,53.3,30.23,ESE,113,3.1,3.1,61,0.00,,,0.00,WUHU216HW,2013-09-25 23:05:00,
2013-09-25 18:30:00,65.5,53.8,30.23,SSE,158,0.4,0.4,66,0.00,,,0.00,WUHU216HW,2013-09-25 23:30:00,
2013-09-25 18:35:00,65.5,53.8,30.23,SSE,158,0.4,0.4,66,0.00,,,0.00,WUHU216HW,2013-09-25 23:35:00,
2013-09-25 19:00:00,63.4,52.7,30.23,SSW,203,0.2,0.2,68,0.00,,,0.00,WUHU216HW,2013-09-26 00:00:00,
2013-09-25 19:05:00,63.4,52.7,30.23,SSW,203,0.2,0.2,68,0.00,,,0.00,WUHU216HW,2013-09-26 00:05:00,
2013-09-25 19:30:00,60.5,51.1,30.23,WSW,248,0.0,0.0,71,0.00,,,0.00,WUHU216HW,2013-09-26 00:30:00,
2013-09-25 19:35:00,60.5,51.1,30.23,WSW,248,0.0,0.0,71,0.00,,,0.00,WUHU216HW,2013-09-26 00:35:00,
2013-09-25 20:00:00,58.7,50.4,30.24,WSW,248,0.0,0.0,74,0.00,,,0.00,WUHU216HW,2013-09-26 01:00:00,
2013-09-25 20:05:00,58.7,50.4,30.24,WSW,248,0.0,0.0,74,0.00,,,0.00,WUHU216HW,2013-09-26 01:05:00,
2013-09-25 20:30:00,57.6,49.7,30.24,SSW,203,0.0,0.0,75,0.00,,,0.00,WUHU216HW,2013-09-26 01:30:00,
2013-09-25 20:35:00,57.6,49.7,30.24,SSW,203,0.0,0.0,75,0.00,,,0.00,WUHU216HW,2013-09-26 01:35:00,
2013-09-25 21:00:00,56.9,49.0,30.25,SSE,158,0.0,0.0,75,0.00,,,0.00,WUHU216HW,2013-09-26 02:00:00,
2013-09-25 21:05:00,56.9,49.0,30.25,SSE,158,0.0,0.0,75,0.00,,,0.00,WUHU216HW,2013-09-26 02:05:00,
2013-09-25 21:10:00,56.9,49.0,30.25,SSE,158,0.0,0.0,75,0.00,,,0.00,WUHU216HW,2013-09-26 02:10:00,
2013-09-25 21:30:00,55.8,48.3,30.25,WSW,248,0.4,0.4,76,0.00,,,0.00,WUHU216HW,2013-09-26 02:30:00,
2013-09-25 21:35:00,55.8,48.3,30.25,WSW,248,0.4,0.4,76,0.00,,,0.00,WUHU216HW,2013-09-26 02:35:00,
2013-09-25 22:00:00,54.5,47.4,30.26,SSW,203,0.0,0.0,77,0.00,,,0.00,WUHU216HW,2013-09-26 03:00:00,
2013-09-25 22:05:00,54.4,47.0,30.26,SSW,203,0.0,0.0,76,0.00,,,0.00,WUHU216HW,2013-09-26 03:05:00,
2013-09-25 22:10:00,54.4,47.0,30.26,SSW,203,0.0,0.0,76,0.00,,,0.00,WUHU216HW,2013-09-26 03:10:00,
2013-09-25 22:30:00,54.0,47.4,30.26,SSE,158,0.7,0.7,78,0.00,,,0.00,WUHU216HW,2013-09-26 03:30:00,
2013-09-25 22:35:00,54.0,47.4,30.26,SSE,158,0.7,0.7,78,0.00,,,0.00,WUHU216HW,2013-09-26 03:35:00,